User: anonymous   Login
Location: Aalen
(48.8330°N, 10.1000°E)
Time: 14:15:51
(UTC+02:00)
Language:

Tiros 1 despin weight - Orbit

View from above orbital plane
View from above orbital plane
View from above satellite
View from above satellite

Ground track
Ground track

The orbit data is extracted from the following two-line orbital elements,

1   115U 60002D   21216.00838372 -.00000036  00000-0  22642-4 0  9998
2   115  48.1668  90.1050 0034902 267.9355  91.7561 14.83802606274237
Epoch (UTC): 04 August 2021 00:12:04
Eccentricity: 0.0034902
inclination: 48.1668°
perigee height: 593 km
apogee height: 642 km
right ascension of ascending node: 90.1050°
argument of perigee: 267.9355°
revolutions per day: 14.83802606
mean anomaly at epoch: 91.7561°
orbit number at epoch: 27423

The dashed part of the orbit path shows where the satellite is in the earth's shadow,  

DLR